Weather Roundup
Issued by NWS Springfield, MO

Home | Current Version | Previous Version | Text Only | Print | Product List | Glossary On
Versions: 1 2 3 4 5 6 7 8 9 10 11 12 13 14 15 16 17 18 19 20 21 22 23 24 25 26 27 28 29 30 31 32 33 34 35 36 37 38 39 40 41 42 43 44 45 46 47 48 49 50
000
NZUS99 KSGF 270707
HRRSGF

HOURLY WEATHER
NATIONAL WEATHER SERVICE SPRINGFIELD MO
200 AM CDT FRI MAY 27 2016

......SGF CWA......

CITY           SKY/WX    TMP DP  RH WIND       PRES   REMARKS
SPRINGFIELD    CLOUDY    70  65  84 SE10      29.85F
JOPLIN         CLOUDY    67  61  81 SE6       29.82F
WEST PLAINS    CLOUDY    67  64  90 SE14G20   29.90F
ROLLA          CLOUDY    66  64  93 SE9       29.89F

......SURROUNDING SGF CWA......

CITY           SKY/WX    TMP DP  RH WIND       PRES   REMARKS
CHANUTE        CLOUDY    67  63  87 CALM      29.80F THUNDER
PARSONS        CLOUDY    71  64  78 VRB3      29.81F THUNDER
COFFEYVILLE    CLOUDY    71  64  78 S6        29.80F
EMPORIA        LGT RAIN  58  57  97 NW5       29.86S
GROVE OK       CLOUDY    70  64  83 SE5       29.82F
ROGERS AR        N/A     66  64  93 SE7       29.85F
SILOAM SPRINGS CLOUDY    64  57  77 E3        29.83F
HARRISON AR    CLOUDY    68  65  90 E5        29.89S
NEAR YELLVILLE CLOUDY   N/A N/A N/A SE8       29.83F

......KANSAS AND MISSOURI......

CITY           SKY/WX    TMP DP  RH WIND       PRES   REMARKS
KANSAS CTY INT CLOUDY    63  60  90 E17G28    29.81F
DOWNTOWN KC    CLOUDY    64  62  93 E8        29.82F
COLUMBIA       CLOUDY    65  64  97 E7        29.88F
SEDALIA        CLOUDY    65  63  93 MISG      29.85F
ST JOSEPH      CLOUDY    63  60  90 SE12G20   29.78S
ST LOUIS       LGT RAIN  70  66  87 SW10      29.93S
SPIRIT OF STL  LGT RAIN  69  67  93 S3        29.91F
KIRKSVILLE     MOCLDY    63  61  93 CALM      29.87R
WICHITA        CLOUDY    62  59  90 E16       29.66F
TOPEKA         RAIN      62  60  93 NW14G21   29.84F FOG
OLATHE         CLOUDY    62  60  93 E7        29.82F

......TENNESSEE......

CITY           SKY/WX    TMP DP  RH WIND       PRES   REMARKS
MEMPHIS        CLOUDY    70  66  87 E5        29.91F
NASHVILLE      MOCLDY    68  62  81 CALM      30.00F

......ARKANSAS.......

CITY           SKY/WX    TMP DP  RH WIND       PRES   REMARKS
FAYETTEVILLE   CLOUDY    68  67  96 SE5       29.84F
FT SMITH       MOCLDY    70  66  87 E6        29.82F
LITTLE ROCK    CLOUDY    72  69  90 SE5       29.86F

......OKLAHOMA.......

CITY           SKY/WX    TMP DP  RH WIND       PRES   REMARKS
TULSA          CLOUDY    74  66  76 S10G22    29.73F
PONCA CITY     CLOUDY    66  60  81 E14       29.69F
MCALESTER      CLOUDY    73  64  73 S12G23    29.81S
OKLAHOMA CITY  CLOUDY    72  57  59 NW8       29.67F

......IOWA............

CITY           SKY/WX    TMP DP  RH WIND       PRES   REMARKS
DES MOINES     CLOUDY    64  59  83 SW9       29.78F
QUAD CITIES    CLOUDY    71  59  65 SW6       29.85S

......ILLINOIS........

CITY           SKY/WX    TMP DP  RH WIND       PRES   REMARKS
QUINCY         CLOUDY    65  63  93 N8        29.87F
CHICAGO        CLOUDY    71  67  87 S7        29.89R



USA.gov is the U.S. government's official web portal to all federal, state and local government web resources and services.